YO8SKY Weather Reports


Display with metric or nautical units.
time (UTC)temp
F
wind
direction
speed
MPH
gust
MPH
rain 1hr
in
rain 24hr
in
rain mn
in
humidity
%
barometer
mb
20190123190744 21 315 4.0 6.0 0.00 0.00 0.00 99 994.9
20190123185846 21 360 2.0 6.0 0.00 0.00 0.00 99 994.7
20190123180938 22 315 4.0 7.0 0.00 0.00 0.00 99 994.4
20190123180041 23 315 4.0 5.0 0.00 0.00 0.00 98 994.4
20190123174240 23 315 3.0 5.0 0.00 0.00 0.00 97 994.8
20190123161544 24 360 4.0 9.0 0.00 0.00 0.00 95 998.2
20190123153952 25 360 7.0 9.0 0.00 0.00 0.00 94 998.3
20190123152155 25 360 4.0 8.0 0.00 0.00 0.00 95 997.8
20190123150352 25 360 3.0 7.0 0.00 0.00 0.00 95 997.2
20190123145453 25 360 5.0 8.0 0.00 0.00 0.00 95 996.9
20190123144555 25 360 6.0 10.0 0.00 0.00 0.00 94 996.8
20190123142759 25 360 7.0 9.0 0.00 0.00 0.00 94 996.4
20190123141901 26 360 5.0 11.0 0.00 0.00 0.00 93 996.4
20190123141004 26 338 8.0 11.0 0.00 0.00 0.00 93 996.3
20190123121115 26 315 7.0 9.0 0.00 0.00 0.00 91 997.6
20190123120218 26 360 6.0 11.0 0.00 0.00 0.00 90 997.7
20190123115319 26 338 6.0 11.0 0.00 0.00 0.00 90 997.5
20190123114421 26 315 8.0 11.0 0.00 0.00 0.00 90 997.2
20190123113523 26 315 8.0 10.0 0.00 0.00 0.00 91 997.3
20190123111726 26 360 8.0 12.0 0.00 0.00 0.00 90 997.5
20190123103222 27 360 4.0 9.0 0.00 0.00 0.00 99 997.5
20190123102321 27 360 6.0 9.0 0.00 0.00 0.00 99 997.4
20190123101421 26 360 5.0 9.0 0.00 0.00 0.00 99 997.2
20190123100519 25 360 5.0 9.0 0.00 0.00 0.00 99 997.4
20190123095617 25 315 4.0 10.0 0.00 0.00 0.00 99 997.3
20190123093814 25 315 4.0 11.0 0.00 0.00 0.00 99 997.2
20190123092912 25 360 8.0 11.0 0.00 0.00 0.00 99 997.0
20190123091109 24 315 4.0 10.0 0.00 0.00 0.00 99 997.0
20190123085308 24 360 4.0 8.0 0.00 0.00 0.00 99 996.8
20190123083507 23 338 4.0 8.0 0.00 0.00 0.00 99 996.3
20190123082607 23 360 6.0 9.0 0.00 0.00 0.00 99 996.1
20190123080811 23 338 4.0 8.0 0.00 0.00 0.00 99 995.7
20190123075010 23 360 5.0 8.0 0.00 0.00 0.00 99 994.9
20190123074108 22 360 4.0 8.0 0.00 0.00 0.00 99 994.8